This demonstration page uses our WeatherBlox Daily Observations layout. Learn more.

39.08367, -84.50855

Hourly Observations for January 30, 2020

Temp ( °F °C ) Dew Point ( °F °C ) Humidity (%) Winds ( mph kmh ) Pressure ( in mb ) Visibility ( mi km ) Precip ( " mm )
12:53 am 00:53 Cloudy 34 1.1 27 -2.8 76 76 Calm 30.18 1022 10 16.0934 0 0
1:53 am 01:53 Cloudy 34 1.1 27 -2.8 76 76 NE 5 7 30.18 1022 10 16.0934 0 0
2:53 am 02:53 Cloudy 34 1.1 26 -3.3 73 73 Calm 30.18 1022 10 16.0934 0 0
3:53 am 03:53 Cloudy 34 1.1 25 -3.9 70 70 NNE 3 6 30.18 1022 10 16.0934 0 0
4:53 am 04:53 Cloudy 33 0.6 26 -3.3 75 75 NE 3 6 30.17 1022 10 16.0934 0 0
5:53 am 05:53 Cloudy 33 0.6 25 -3.9 72 72 NNE 5 7 30.18 1022 10 16.0934 0 0
6:53 am 06:53 Cloudy 33 0.6 25 -3.9 72 72 NNE 6 9 30.21 1023 10 16.0934 0 0
7:53 am 07:53 Cloudy 33 0.6 26 -3.3 75 75 Calm 30.22 1024 10 16.0934 0 0
8:53 am 08:53 Cloudy 34 1.1 26 -3.3 73 73 NNE 3 6 30.24 1024 10 16.0934 0 0
9:53 am 09:53 Cloudy 35 1.7 26 -3.3 70 70 ENE 6 9 30.26 1025 10 16.0934 0 0
10:53 am 10:53 Cloudy 35 1.7 27 -2.8 72 72 NE 5 7 30.26 1025 10 16.0934 0 0
11:53 am 11:53 Cloudy 37 2.8 27 -2.8 67 67 N 6 9 30.25 1024 10 16.0934 0 0
12:53 pm 12:53 Cloudy 38 3.3 26 -3.3 62 62 NNE 6 9 30.22 1024 10 16.0934 0 0
1:53 pm 13:53 Cloudy 38 3.3 26 -3.3 62 62 Calm 30.2 1023 10 16.0934 0 0
2:53 pm 14:53 Cloudy 39 3.9 26 -3.3 60 60 Calm 30.19 1023 10 16.0934 0 0
3:53 pm 15:53 Cloudy 40 4.4 26 -3.3 58 58 N 3 6 30.2 1023 10 16.0934 0 0
4:53 pm 16:53 Cloudy 39 3.9 26 -3.3 60 60 NE 3 6 30.21 1023 10 16.0934 0 0
5:53 pm 17:53 Cloudy 36 2.2 26 -3.3 67 67 NE 5 7 30.22 1023 10 16.0934 0 0
6:53 pm 18:53 Cloudy 36 2.2 27 -2.8 70 70 NE 5 7 30.24 1024 10 16.0934 0 0
7:53 pm 19:53 Cloudy 36 2.2 27 -2.8 70 70 NE 5 7 30.24 1024 10 16.0934 0 0
8:53 pm 20:53 Cloudy 36 2.2 26 -3.3 67 67 NE 6 9 30.24 1024 10 16.0934 0 0
9:53 pm 21:53 Cloudy 36 2.2 26 -3.3 67 67 NE 6 9 30.23 1024 10 16.0934 0 0
10:53 pm 22:53 Cloudy 35 1.7 26 -3.3 70 70 NE 6 9 30.23 1024 10 16.0934 0 0
11:53 pm 23:53 Cloudy 35 1.7 27 -2.8 72 72 Calm 30.24 1024 10 16.0934 0 0

Powered by AerisWeather